| time (UTC) | temp F | wind direction | speed MPH | gust MPH | rain 1hr in | rain 24hr in | rain mn in | humidity % | barometer mb |
| 20260505224016 | 83 | 158 | 6.0 | 11.0 | 0.00 | 0.00 | 0.00 | 74 | 1006.6 |
| 20260505223036 | 83 | 158 | 6.0 | 15.0 | 0.00 | 0.00 | 0.00 | 74 | 1006.6 |
| 20260505222016 | 83 | 158 | 6.0 | 16.0 | 0.00 | 0.00 | 0.00 | 74 | 1006.7 |
| 20260505221016 | 83 | 180 | 6.0 | 12.0 | 0.00 | 0.00 | 0.00 | 74 | 1006.7 |
| 20260505220017 | 83 | 158 | 5.0 | 14.0 | 0.00 | 0.00 | 0.00 | 73 | 1006.9 |
| 20260505215016 | 84 | 203 | 5.0 | 13.0 | 0.00 | 0.00 | 0.00 | 74 | 1006.9 |
| 20260505214016 | 84 | 180 | 8.0 | 15.0 | 0.00 | 0.00 | 0.00 | 72 | 1007.0 |
| 20260505213016 | 84 | 203 | 8.0 | 19.0 | 0.00 | 0.00 | 0.00 | 72 | 1007.1 |
| 20260505212016 | 83 | 203 | 8.0 | 16.0 | 0.00 | 0.00 | 0.00 | 73 | 1007.2 |
| 20260505211016 | 83 | 203 | 6.0 | 14.0 | 0.00 | 0.00 | 0.00 | 75 | 1007.5 |
| 20260505210016 | 82 | 203 | 8.0 | 15.0 | 0.00 | 0.00 | 0.00 | 75 | 1007.7 |
| 20260505205016 | 82 | 203 | 4.0 | 11.0 | 0.00 | 0.00 | 0.00 | 76 | 1007.9 |
| 20260505204056 | 82 | 203 | 8.0 | 17.0 | 0.00 | 0.00 | 0.00 | 76 | 1008.1 |
| 20260505203016 | 81 | 203 | 9.0 | 17.0 | 0.00 | 0.00 | 0.00 | 77 | 1008.2 |
| 20260505202016 | 82 | 158 | 5.0 | 13.0 | 0.00 | 0.00 | 0.00 | 77 | 1008.3 |
| 20260505201016 | 81 | 203 | 7.0 | 14.0 | 0.00 | 0.00 | 0.00 | 78 | 1008.3 |
| 20260505200036 | 82 | 225 | 6.0 | 14.0 | 0.00 | 0.00 | 0.00 | 77 | 1008.4 |
| 20260505195016 | 81 | 203 | 9.0 | 16.0 | 0.00 | 0.00 | 0.00 | 78 | 1008.7 |
| 20260505194016 | 81 | 158 | 10.0 | 19.0 | 0.00 | 0.00 | 0.00 | 77 | 1008.9 |
| 20260505193016 | 80 | 158 | 9.0 | 17.0 | 0.00 | 0.00 | 0.00 | 79 | 1008.9 |
| 20260505191016 | 80 | 158 | 8.0 | 16.0 | 0.00 | 0.00 | 0.00 | 80 | 1009.2 |
| 20260505190056 | 79 | 158 | 7.0 | 13.0 | 0.00 | 0.00 | 0.00 | 81 | 1009.0 |
| 20260505185016 | 79 | 203 | 7.0 | 18.0 | 0.00 | 0.00 | 0.00 | 82 | 1009.2 |
| 20260505184016 | 78 | 203 | 6.0 | 12.0 | 0.00 | 0.00 | 0.00 | 83 | 1009.3 |
| 20260505183016 | 78 | 203 | 5.0 | 13.0 | 0.00 | 0.00 | 0.00 | 83 | 1009.4 |
| 20260505182016 | 78 | 180 | 9.0 | 15.0 | 0.00 | 0.00 | 0.00 | 84 | 1009.5 |
| 20260505181016 | 77 | 203 | 8.0 | 17.0 | 0.00 | 0.00 | 0.00 | 84 | 1009.6 |
| 20260505180036 | 77 | 203 | 7.0 | 14.0 | 0.00 | 0.00 | 0.00 | 85 | 1009.5 |
| 20260505175016 | 77 | 225 | 8.0 | 14.0 | 0.00 | 0.00 | 0.00 | 84 | 1009.6 |
| 20260505174036 | 77 | 203 | 4.0 | 13.0 | 0.00 | 0.00 | 0.00 | 84 | 1009.7 |
| 20260505173016 | 77 | 180 | 6.0 | 13.0 | 0.00 | 0.00 | 0.00 | 85 | 1009.6 |
| 20260505172016 | 76 | 203 | 8.0 | 15.0 | 0.00 | 0.00 | 0.00 | 86 | 1009.5 |
| 20260505171016 | 76 | 203 | 5.0 | 12.0 | 0.00 | 0.00 | 0.00 | 87 | 1009.7 |
| 20260505170016 | 75 | 203 | 6.0 | 13.0 | 0.00 | 0.00 | 0.00 | 89 | 1009.8 |
| 20260505165016 | 75 | 203 | 9.0 | 18.0 | 0.00 | 0.00 | 0.00 | 89 | 1009.8 |
| 20260505164016 | 74 | 203 | 7.0 | 16.0 | 0.00 | 0.00 | 0.00 | 89 | 1010.0 |
| 20260505163016 | 74 | 225 | 7.0 | 15.0 | 0.00 | 0.00 | 0.00 | 89 | 1010.0 |
| 20260505162016 | 74 | 203 | 8.0 | 17.0 | 0.00 | 0.00 | 0.00 | 89 | 1010.0 |
| 20260505161016 | 74 | 203 | 9.0 | 18.0 | 0.00 | 0.00 | 0.00 | 89 | 1010.0 |
| 20260505153036 | 73 | 203 | 6.0 | 14.0 | 0.00 | 0.00 | 0.00 | 92 | 1009.6 |
| 20260505152015 | 72 | 203 | 6.0 | 14.0 | 0.00 | 0.00 | 0.00 | 92 | 1009.6 |
| 20260505151015 | 72 | 203 | 6.0 | 13.0 | 0.00 | 0.00 | 0.00 | 92 | 1009.7 |
| 20260505125015 | 71 | 203 | 6.0 | 14.0 | 0.00 | 0.00 | 0.00 | 92 | 1008.9 |
| 20260505124015 | 71 | 180 | 10.0 | 19.0 | 0.00 | 0.00 | 0.00 | 92 | 1008.8 |
| 20260505123015 | 71 | 203 | 8.0 | 15.0 | 0.00 | 0.00 | 0.00 | 92 | 1008.8 |
| 20260505122015 | 71 | 180 | 9.0 | 17.0 | 0.00 | 0.00 | 0.00 | 92 | 1008.6 |
| 20260505121035 | 71 | 180 | 8.0 | 20.0 | 0.00 | 0.00 | 0.00 | 92 | 1008.6 |
| 20260505120035 | 71 | 203 | 6.0 | 13.0 | 0.00 | 0.00 | 0.00 | 92 | 1008.3 |
| 20260505115015 | 70 | 180 | 7.0 | 16.0 | 0.00 | 0.00 | 0.00 | 92 | 1008.6 |
| 20260505114015 | 70 | 158 | 7.0 | 17.0 | 0.00 | 0.00 | 0.00 | 91 | 1008.4 |
| 20260505113015 | 70 | 203 | 7.0 | 13.0 | 0.00 | 0.00 | 0.00 | 91 | 1008.6 |
| 20260505112015 | 70 | 203 | 7.0 | 18.0 | 0.00 | 0.00 | 0.00 | 91 | 1008.4 |
| 20260505111015 | 70 | 203 | 5.0 | 13.0 | 0.00 | 0.00 | 0.00 | 91 | 1008.4 |
| 20260505102017 | 70 | 180 | 8.0 | 21.0 | 0.00 | 0.00 | 0.00 | 90 | 1008.6 |
| 20260505101015 | 70 | 180 | 7.0 | 16.0 | 0.00 | 0.00 | 0.00 | 90 | 1008.5 |
| 20260505100017 | 70 | 203 | 7.0 | 18.0 | 0.00 | 0.00 | 0.00 | 90 | 1008.7 |
| 20260505095037 | 70 | 203 | 8.0 | 15.0 | 0.00 | 0.00 | 0.00 | 91 | 1008.5 |
| 20260505094037 | 70 | 158 | 9.0 | 18.0 | 0.00 | 0.00 | 0.00 | 91 | 1008.8 |
| 20260505093017 | 70 | 158 | 9.0 | 20.0 | 0.00 | 0.00 | 0.00 | 91 | 1008.9 |
| 20260505092017 | 70 | 203 | 8.0 | 20.0 | 0.00 | 0.00 | 0.00 | 91 | 1008.8 |
| 20260505091017 | 70 | 203 | 6.0 | 12.0 | 0.00 | 0.00 | 0.00 | 90 | 1008.6 |
| 20260505090017 | 70 | 203 | 8.0 | 20.0 | 0.00 | 0.00 | 0.00 | 90 | 1008.6 |
| 20260505084017 | 70 | 203 | 7.0 | 14.0 | 0.00 | 0.00 | 0.00 | 90 | 1008.8 |
| 20260505083017 | 70 | 158 | 8.0 | 18.0 | 0.00 | 0.00 | 0.00 | 90 | 1009.0 |
| 20260505082017 | 70 | 180 | 8.0 | 15.0 | 0.00 | 0.00 | 0.00 | 90 | 1009.2 |
| 20260505081017 | 70 | 158 | 6.0 | 13.0 | 0.00 | 0.00 | 0.00 | 90 | 1009.5 |
| 20260505080017 | 70 | 158 | 6.0 | 13.0 | 0.00 | 0.00 | 0.00 | 90 | 1009.5 |
| 20260505075017 | 70 | 180 | 8.0 | 18.0 | 0.00 | 0.00 | 0.00 | 90 | 1009.4 |
| 20260505074017 | 70 | 158 | 8.0 | 19.0 | 0.00 | 0.00 | 0.00 | 90 | 1009.6 |
| 20260505073017 | 70 | 158 | 8.0 | 17.0 | 0.00 | 0.00 | 0.00 | 90 | 1009.8 |
| 20260505072017 | 70 | 180 | 8.0 | 18.0 | 0.00 | 0.00 | 0.00 | 90 | 1009.8 |
| 20260505071017 | 70 | 158 | 6.0 | 14.0 | 0.00 | 0.00 | 0.00 | 90 | 1010.0 |
| 20260505070017 | 70 | 158 | 8.0 | 18.0 | 0.00 | 0.00 | 0.00 | 90 | 1009.9 |
| 20260505065036 | 70 | 180 | 8.0 | 18.0 | 0.00 | 0.00 | 0.00 | 90 | 1010.2 |
| 20260505064057 | 70 | 158 | 8.0 | 16.0 | 0.00 | 0.00 | 0.00 | 90 | 1010.4 |
| 20260505063016 | 70 | 158 | 9.0 | 16.0 | 0.00 | 0.00 | 0.00 | 90 | 1010.4 |
| 20260505062017 | 69 | 158 | 8.0 | 14.0 | 0.00 | 0.00 | 0.00 | 91 | 1010.5 |
| 20260505061017 | 69 | 180 | 7.0 | 15.0 | 0.00 | 0.00 | 0.00 | 90 | 1010.3 |
| 20260505060016 | 69 | 180 | 9.0 | 20.0 | 0.00 | 0.00 | 0.00 | 90 | 1010.2 |
| 20260505055017 | 69 | 158 | 9.0 | 17.0 | 0.00 | 0.00 | 0.00 | 90 | 1010.2 |
| 20260505054016 | 69 | 135 | 8.0 | 15.0 | 0.00 | 0.00 | 0.00 | 90 | 1010.2 |
| 20260505053017 | 69 | 158 | 9.0 | 17.0 | 0.00 | 0.00 | 0.00 | 89 | 1010.3 |
| 20260505052016 | 69 | 158 | 9.0 | 18.0 | 0.00 | 0.00 | 0.00 | 89 | 1010.4 |
| 20260505051036 | 70 | 158 | 7.0 | 14.0 | 0.00 | 0.00 | 0.00 | 88 | 1010.4 |
| 20260505041017 | 71 | 158 | 7.0 | 16.0 | 0.00 | 0.00 | 0.00 | 85 | 1010.8 |
| 20260505040017 | 71 | 135 | 7.0 | 12.0 | 0.00 | 0.00 | 0.00 | 85 | 1010.7 |
| 20260505035017 | 71 | 135 | 6.0 | 12.0 | 0.00 | 0.00 | 0.00 | 84 | 1010.6 |
| 20260505034017 | 72 | 135 | 8.0 | 15.0 | 0.00 | 0.00 | 0.00 | 83 | 1010.5 |
| 20260505033017 | 72 | 135 | 9.0 | 16.0 | 0.00 | 0.00 | 0.00 | 83 | 1010.6 |
| 20260505032017 | 73 | 158 | 9.0 | 16.0 | 0.00 | 0.00 | 0.00 | 82 | 1010.9 |
| 20260505031017 | 73 | 135 | 7.0 | 14.0 | 0.00 | 0.00 | 0.00 | 82 | 1010.8 |
| 20260505030017 | 73 | 135 | 7.0 | 18.0 | 0.00 | 0.00 | 0.00 | 82 | 1010.8 |
| 20260505025017 | 73 | 158 | 7.0 | 18.0 | 0.00 | 0.00 | 0.00 | 81 | 1010.7 |
| 20260505024017 | 73 | 135 | 7.0 | 12.0 | 0.00 | 0.00 | 0.00 | 81 | 1010.5 |
| 20260505023017 | 73 | 158 | 6.0 | 11.0 | 0.00 | 0.00 | 0.00 | 81 | 1010.4 |
| 20260505022017 | 73 | 135 | 4.0 | 8.0 | 0.00 | 0.00 | 0.00 | 80 | 1010.5 |
| 20260505021017 | 74 | 135 | 5.0 | 9.0 | 0.00 | 0.00 | 0.00 | 80 | 1010.3 |
| 20260505020016 | 74 | 158 | 5.0 | 13.0 | 0.00 | 0.00 | 0.00 | 79 | 1010.2 |
| 20260505015037 | 74 | 135 | 5.0 | 11.0 | 0.00 | 0.00 | 0.00 | 79 | 1010.3 |
| 20260505014037 | 74 | 135 | 3.0 | 8.0 | 0.00 | 0.00 | 0.00 | 78 | 1010.2 |
| 20260505013017 | 75 | 135 | 4.0 | 7.0 | 0.00 | 0.00 | 0.00 | 77 | 1010.1 |
| 20260505012016 | 75 | 158 | 5.0 | 10.0 | 0.00 | 0.00 | 0.00 | 76 | 1009.9 |
| 20260505011016 | 76 | 158 | 6.0 | 12.0 | 0.00 | 0.00 | 0.00 | 75 | 1009.9 |
| 20260505010016 | 76 | 135 | 6.0 | 11.0 | 0.00 | 0.00 | 0.00 | 74 | 1010.0 |
| 20260505005017 | 77 | 158 | 8.0 | 14.0 | 0.00 | 0.00 | 0.00 | 72 | 1009.8 |
| 20260505004017 | 78 | 158 | 9.0 | 17.0 | 0.00 | 0.00 | 0.00 | 71 | 1009.8 |
| 20260505003017 | 78 | 158 | 8.0 | 19.0 | 0.00 | 0.00 | 0.00 | 70 | 1009.8 |
| 20260505002017 | 78 | 158 | 6.0 | 13.0 | 0.00 | 0.00 | 0.00 | 70 | 1010.0 |
| 20260505001017 | 79 | 158 | 7.0 | 14.0 | 0.00 | 0.00 | 0.00 | 69 | 1010.0 |
| 20260505000036 | 79 | 135 | 9.0 | 18.0 | 0.00 | 0.00 | 0.00 | 67 | 1010.0 |
| 20260504235016 | 80 | 158 | 7.0 | 15.0 | 0.00 | 0.00 | 0.00 | 66 | 1010.0 |
| 20260504234016 | 80 | 158 | 9.0 | 19.0 | 0.00 | 0.00 | 0.00 | 65 | 1010.2 |
| 20260504233017 | 81 | 158 | 7.0 | 15.0 | 0.00 | 0.00 | 0.00 | 64 | 1010.1 |
| 20260504232016 | 81 | 203 | 8.0 | 15.0 | 0.00 | 0.00 | 0.00 | 64 | 1010.3 |
| 20260504231017 | 81 | 203 | 8.0 | 21.0 | 0.00 | 0.00 | 0.00 | 63 | 1010.4 |
| 20260504230036 | 82 | 158 | 9.0 | 18.0 | 0.00 | 0.00 | 0.00 | 62 | 1010.4 |
| 20260504225016 | 81 | 203 | 9.0 | 17.0 | 0.00 | 0.00 | 0.00 | 63 | 1010.5 |